• In Czech Republic
  • List of Countries
  • For 7 days
  • Water Temperature
  • Satellite Maps
  • Weather Map
  • Weather Widgets
  • user-avatar
    Login

    Hourly Weather Batina

    Today, 23 April, Monday

    Time Temperature Precipitation Wind Pressure Humidity
    00:00 +16°C° 0 mm 1 mps 672 mmHg 58%
    01:00 +16°C° 0 mm 1 mps 672 mmHg 56%
    02:00 +16°C° 0 mm 1 mps 671 mmHg 55%
    03:00 +15°C° 0 mm 1 mps 671 mmHg 54%
    04:00 +16°C° 0 mm 1 mps 671 mmHg 52%
    05:00 +18°C° 0 mm 1 mps 672 mmHg 51%
    06:00 +18°C° 0 mm 1 mps 672 mmHg 49%
    07:00 +19°C° 0 mm 2 mps 673 mmHg 42%
    08:00 +21°C° 0 mm 2 mps 673 mmHg 35%
    09:00 +24°C° 0 mm 2 mps 674 mmHg 28%
    10:00 +25°C° 0 mm 2 mps 674 mmHg 26%
    11:00 +26°C° 0 mm 2 mps 674 mmHg 24%
    12:00 +27°C° 0 mm 3 mps 674 mmHg 22%
    13:00 +27°C° 0 mm 3 mps 674 mmHg 22%
    14:00 +27°C° 0 mm 3 mps 674 mmHg 21%
    15:00 +28°C° 0 mm 3 mps 673 mmHg 21%
    16:00 +26°C° 0 mm 3 mps 673 mmHg 26%
    17:00 +25°C° 0 mm 2 mps 673 mmHg 30%
    18:00 +24°C° 0 mm 2 mps 672 mmHg 35%
    19:00 +23°C° 0 mm 2 mps 673 mmHg 39%
    20:00 +22°C° 0 mm 1 mps 673 mmHg 44%
    21:00 +20°C° 0 mm 1 mps 673 mmHg 48%
    22:00 +20°C° 0 mm 1 mps 673 mmHg 48%
    23:00 +19°C° 0 mm 1 mps 673 mmHg 47%

    Tomorrow, 24 April, Tuesday

    Time Temperature Precipitation Wind Pressure Humidity
    00:00 +19°C° 0 mm 1 mps 672 mmHg 47%
    01:00 +18°C° 0 mm 1 mps 672 mmHg 48%
    02:00 +18°C° 0 mm 1 mps 672 mmHg 48%
    03:00 +18°C° 0 mm 1 mps 672 mmHg 48%
    04:00 +18°C° 0 mm 1 mps 672 mmHg 48%
    05:00 +18°C° 0 mm 2 mps 672 mmHg 47%
    06:00 +18°C° 0 mm 2 mps 673 mmHg 46%
    07:00 +20°C° 0 mm 2 mps 673 mmHg 40%
    08:00 +22°C° 0 mm 3 mps 674 mmHg 35%
    09:00 +25°C° 0 mm 3 mps 675 mmHg 29%
    10:00 +25°C° 0 mm 4 mps 675 mmHg 27%
    11:00 +26°C° 0 mm 4 mps 675 mmHg 25%
    12:00 +27°C° 0 mm 5 mps 675 mmHg 23%
    13:00 +27°C° 0 mm 5 mps 674 mmHg 22%
    14:00 +27°C° 0 mm 5 mps 674 mmHg 22%
    15:00 +28°C° 0 mm 5 mps 673 mmHg 21%
    16:00 +26°C° 0 mm 4 mps 673 mmHg 24%
    17:00 +25°C° 0 mm 4 mps 672 mmHg 27%
    18:00 +24°C° 0 mm 3 mps 672 mmHg 30%
    19:00 +22°C° 0 mm 3 mps 672 mmHg 33%
    20:00 +21°C° 0 mm 2 mps 672 mmHg 36%
    21:00 +20°C° 0 mm 2 mps 672 mmHg 39%
    22:00 +19°C° 0 mm 2 mps 672 mmHg 40%
    23:00 +19°C° 0 mm 2 mps 672 mmHg 40%

    Day after tomorrow, 25 April, Wednesday

    Time Temperature Precipitation Wind Pressure Humidity
    00:00 +20°C° 0 mm 1 mps 672 mmHg 41%
    01:00 +20°C° 0 mm 1 mps 671 mmHg 41%
    02:00 +18°C° 0 mm 2 mps 671 mmHg 41%
    03:00 +17°C° 0 mm 2 mps 670 mmHg 41%
    04:00 +18°C° 0 mm 2 mps 670 mmHg 40%
    05:00 +19°C° 0 mm 2 mps 670 mmHg 39%
    06:00 +19°C° 0 mm 3 mps 671 mmHg 38%
    07:00 +21°C° 0 mm 4 mps 671 mmHg 34%
    08:00 +23°C° 0 mm 5 mps 672 mmHg 29%
    09:00 +24°C° 0 mm 6 mps 672 mmHg 24%
    10:00 +26°C° 0.1 mm 7 mps 672 mmHg 23%
    11:00 +27°C° 0.1 mm 7 mps 672 mmHg 22%
    12:00 +28°C° 0.1 mm 7 mps 672 mmHg 21%
    13:00 +28°C° 0.2 mm 6 mps 672 mmHg 22%
    14:00 +27°C° 0.2 mm 5 mps 671 mmHg 23%
    15:00 +27°C° 0.2 mm 4 mps 671 mmHg 24%
    16:00 +25°C° 0.5 mm 4 mps 670 mmHg 31%
    17:00 +23°C° 0.5 mm 4 mps 670 mmHg 38%
    18:00 +21°C° 0.5 mm 4 mps 669 mmHg 45%
    19:00 +20°C° 0.3 mm 4 mps 669 mmHg 47%
    20:00 +20°C° 0.3 mm 5 mps 669 mmHg 49%
    21:00 +19°C° 0.3 mm 5 mps 669 mmHg 51%
    22:00 +19°C° 0.2 mm 5 mps 668 mmHg 52%
    23:00 +17°C° 0.2 mm 5 mps 667 mmHg 52%

    26 April, Thursday

    Time Temperature Precipitation Wind Pressure Humidity
    00:00 +18°C° 0.2 mm 4 mps 667 mmHg 53%
    01:00 +17°C° 0.4 mm 4 mps 666 mmHg 52%
    02:00 +17°C° 0.4 mm 4 mps 666 mmHg 52%
    03:00 +17°C° 0.4 mm 4 mps 665 mmHg 51%
    04:00 +17°C° 0 mm 4 mps 665 mmHg 51%
    05:00 +17°C° 0 mm 4 mps 665 mmHg 51%
    06:00 +17°C° 0 mm 4 mps 665 mmHg 51%
    07:00 +19°C° 0 mm 5 mps 665 mmHg 44%
    08:00 +20°C° 0 mm 5 mps 665 mmHg 38%
    09:00 +22°C° 0 mm 6 mps 665 mmHg 32%
    10:00 +23°C° 0 mm 6 mps 665 mmHg 29%
    11:00 +24°C° 0 mm 6 mps 665 mmHg 27%
    12:00 +26°C° 0 mm 7 mps 665 mmHg 25%
    13:00 +26°C° 0 mm 6 mps 665 mmHg 23%
    14:00 +26°C° 0 mm 6 mps 664 mmHg 22%
    15:00 +26°C° 0 mm 5 mps 664 mmHg 21%
    16:00 +25°C° 0 mm 5 mps 663 mmHg 28%
    17:00 +22°C° 0 mm 5 mps 663 mmHg 34%
    18:00 +21°C° 0 mm 5 mps 663 mmHg 41%
    19:00 +19°C° 0.5 mm 4 mps 663 mmHg 51%
    20:00 +18°C° 0.5 mm 4 mps 663 mmHg 61%
    21:00 +15°C° 0.5 mm 4 mps 663 mmHg 71%
    22:00 +15°C° 0.1 mm 4 mps 663 mmHg 73%
    23:00 +14°C° 0.1 mm 3 mps 663 mmHg 76%

    27 April, Friday

    Time Temperature Precipitation Wind Pressure Humidity
    00:00 +14°C° 0.1 mm 3 mps 663 mmHg 79%
    01:00 +14°C° 0.1 mm 3 mps 662 mmHg 80%
    02:00 +13°C° 0.1 mm 3 mps 662 mmHg 80%
    03:00 +13°C° 0.1 mm 4 mps 662 mmHg 80%
    04:00 +13°C° 0 mm 4 mps 662 mmHg 80%
    05:00 +13°C° 0 mm 4 mps 662 mmHg 80%
    06:00 +13°C° 0 mm 4 mps 663 mmHg 80%
    07:00 +14°C° 0.1 mm 5 mps 663 mmHg 76%
    08:00 +14°C° 0.1 mm 5 mps 664 mmHg 72%
    09:00 +15°C° 0.1 mm 5 mps 664 mmHg 68%
    10:00 +15°C° 0.1 mm 5 mps 664 mmHg 66%
    11:00 +16°C° 0.1 mm 5 mps 665 mmHg 63%
    12:00 +16°C° 0.1 mm 5 mps 665 mmHg 61%
    13:00 +16°C° 0.1 mm 5 mps 665 mmHg 61%
    14:00 +16°C° 0.1 mm 5 mps 665 mmHg 60%
    15:00 +16°C° 0.1 mm 5 mps 665 mmHg 59%
    16:00 +15°C° 0.1 mm 5 mps 665 mmHg 62%
    17:00 +15°C° 0.1 mm 5 mps 665 mmHg 64%
    18:00 +14°C° 0.1 mm 5 mps 665 mmHg 66%
    19:00 +13°C° 0 mm 4 mps 665 mmHg 71%
    20:00 +12°C° 0 mm 4 mps 666 mmHg 75%
    21:00 +11°C° 0 mm 3 mps 666 mmHg 80%
    22:00 +11°C° 0 mm 3 mps 666 mmHg 81%
    23:00 +10°C° 0 mm 2 mps 666 mmHg 82%

    28 April, Saturday

    Time Temperature Precipitation Wind Pressure Humidity
    00:00 +10°C° 0 mm 2 mps 665 mmHg 83%
    01:00 +10°C° 0 mm 2 mps 665 mmHg 82%
    02:00 +9°C° 0 mm 2 mps 665 mmHg 82%
    03:00 +10°C° 0 mm 1 mps 665 mmHg 81%
    04:00 +11°C° 0 mm 1 mps 665 mmHg 77%
    05:00 +11°C° 0 mm 1 mps 666 mmHg 73%
    06:00 +12°C° 0 mm 1 mps 666 mmHg 68%
    07:00 +14°C° 0 mm 1 mps 667 mmHg 61%
    08:00 +15°C° 0 mm 1 mps 667 mmHg 53%
    09:00 +18°C° 0 mm 1 mps 668 mmHg 45%
    10:00 +19°C° 0 mm 1 mps 668 mmHg 41%
    11:00 +20°C° 0 mm 1 mps 668 mmHg 36%
    12:00 +21°C° 0 mm 2 mps 668 mmHg 32%
    13:00 +21°C° 0 mm 2 mps 668 mmHg 31%
    14:00 +21°C° 0 mm 2 mps 668 mmHg 30%
    15:00 +23°C° 0 mm 2 mps 668 mmHg 29%
    16:00 +21°C° 0 mm 2 mps 668 mmHg 33%
    17:00 +20°C° 0 mm 3 mps 668 mmHg 37%
    18:00 +20°C° 0 mm 3 mps 668 mmHg 41%
    19:00 +18°C° 0 mm 2 mps 668 mmHg 47%
    20:00 +17°C° 0 mm 2 mps 668 mmHg 53%
    21:00 +16°C° 0 mm 1 mps 668 mmHg 59%
    22:00 +16°C° 0 mm 2 mps 668 mmHg 60%
    23:00 +16°C° 0 mm 2 mps 668 mmHg 61%
    Show more